This is the latest recevied weather packets stored in our database for station/object LU3HGB-WX. If no packets are shown the sender has not sent any weather packets the latest 10 day(s).
| Time | Temp. | Humidity | Pressure | Rain* | Wind** | Luminosity | Snow |
|---|---|---|---|---|---|---|---|
| 1788487960 | 7.22° C | 62% | 1020 hPa | 0 mm | - | 0 W/m² | - |
| 1788487659 | 6.67° C | 62% | 1020 hPa | 0 mm | - | 0 W/m² | - |
| 1788487359 | 6.67° C | 63% | 1020 hPa | 0 mm | - | 0 W/m² | - |
| 1788487059 | 7.22° C | 62% | 1020 hPa | 0 mm | - | 0 W/m² | - |
| 1788486759 | 7.22° C | 61% | 1020 hPa | 0 mm | - | 0 W/m² | - |
| 1788486459 | 6.67° C | 58% | 1020 hPa | 0 mm | - | 0 W/m² | - |
| 1788486160 | 6.11° C | 56% | 1020 hPa | 0 mm | - | 0 W/m² | - |
| 1788485861 | 6.11° C | 58% | 1020 hPa | 0 mm | - | 0 W/m² | - |
| 1788485559 | 6.67° C | 62% | 1020 hPa | 0 mm | - | 0 W/m² | - |
| 1788485260 | 6.67° C | 52% | 1020 hPa | 0 mm | - | 0 W/m² | - |
| 1788484960 | 6.11° C | 52% | 1020 hPa | 0 mm | - | 0 W/m² | - |
| 1788484660 | 5.56° C | 59% | 1020 hPa | 0 mm | - | 0 W/m² | - |
| 1788484360 | 6.11° C | 56% | 1020 hPa | 0 mm | - | 0 W/m² | - |
| 1788484060 | 6.11° C | 54% | 1020 hPa | 0 mm | - | 0 W/m² | - |
| 1788483760 | 6.11° C | 51% | 1020 hPa | 0 mm | - | 0 W/m² | - |
| 1788483462 | 6.11° C | 51% | 1020 hPa | 0 mm | - | 0 W/m² | - |
| 1788483159 | 6.11° C | 57% | 1020 hPa | 0 mm | - | 0 W/m² | - |
| 1788482859 | 6.11° C | 58% | 1020 hPa | 0 mm | - | 0 W/m² | - |
| 1788482559 | 6.11° C | 58% | 1020 hPa | 0 mm | - | 0 W/m² | - |
| 1788482261 | 6.11° C | 59% | 1020 hPa | 0 mm | - | 0 W/m² | - |
| 1788481960 | 6.11° C | 56% | 1020 hPa | 0 mm | - | 0 W/m² | - |
| 1788481659 | 6.67° C | 54% | 1020 hPa | 0 mm | - | 0 W/m² | - |
| 1788481360 | 6.67° C | 53% | 1020 hPa | 0 mm | - | 0 W/m² | - |
| 1788481059 | 7.22° C | 52% | 1020 hPa | 0 mm | - | 0 W/m² | - |
| 1788480760 | 7.22° C | 51% | 1019 hPa | 0 mm | - | 0 W/m² | - |
* Rain latest hour (hover to see other rain measurements)
** Current wind speed in m/s (hover to see current wind gust speed)